PD2SKZ-12 Weather Reports


time (UTC)temp
F
wind
direction
speed
knots
gust
knots
rain 1hr
in
rain 24hr
in
rain mn
in
humidity
%
barometer
mb
20260506203637 54 314 3.5 3.5 0.00 0.00 0.00 64 1013.5
20260506203137 54 318 2.6 5.2 0.00 0.00 0.00 64 1013.5
20260506202657 54 325 4.3 7.0 0.00 0.00 0.00 63 1013.4
20260506202137 54 298 5.2 7.0 0.00 0.00 0.00 64 1013.5
20260506201657 54 304 1.7 3.5 0.00 0.00 0.00 64 1013.4
20260506201137 55 297 3.5 4.3 0.00 0.00 0.00 63 1013.4
20260506200637 55 298 3.5 6.1 0.00 0.00 0.00 64 1013.3
20260506200138 55 316 0.9 3.5 0.00 0.00 0.00 63 1013.3
20260506195638 55 296 1.7 4.3 0.00 0.00 0.00 63 1013.2
20260506195137 55 318 5.2 7.0 0.00 0.00 0.00 63 1013.2
20260506194637 55 276 2.6 6.1 0.00 0.00 0.00 62 1013.2
20260506194137 55 187 0.0 2.6 0.00 0.00 0.00 62 1013.1
20260506193637 55 148 0.9 0.9 0.00 0.00 0.00 61 1013.1
20260506193217 56 290 1.7 1.7 0.00 0.00 0.00 61 1012.9
20260506192637 55 305 1.7 3.5 0.00 0.00 0.00 61 1012.9
20260506192137 56 0.0 1.7 0.00 0.00 0.00 61 1012.9
20260506191638 55 269 1.7 3.5 0.00 0.00 0.00 61 1012.9
20260506191137 56 292 0.9 2.6 0.00 0.00 0.00 60 1012.8
20260506190640 56 295 1.7 6.1 0.00 0.00 0.00 60 1012.7
20260506190137 56 131 0.9 1.7 0.00 0.00 0.00 60 1012.6
20260506185638 56 105 0.9 4.3 0.00 0.00 0.00 60 1012.6
20260506185158 56 101 2.6 4.3 0.00 0.00 0.00 59 1012.5
20260506184637 56 294 1.7 2.6 0.00 0.00 0.00 59 1012.4
20260506184217 56 295 3.5 5.2 0.00 0.00 0.00 59 1012.3
20260506183637 56 272 1.7 5.2 0.00 0.00 0.00 58 1012.3
20260506183138 56 286 3.5 6.1 0.00 0.00 0.00 57 1012.2
20260506182638 56 296 2.6 6.1 0.00 0.00 0.00 56 1012.1
20260506182137 57 344 1.7 4.3 0.00 0.00 0.00 55 1012.1
20260506181717 57 289 1.7 3.5 0.00 0.00 0.00 54 1012.0
20260506181137 57 323 0.9 6.1 0.00 0.00 0.00 53 1012.0
20260506180627 57 309 0.9 1.7 0.00 0.00 0.00 52 1011.9
20260506180138 57 226 1.7 2.6 0.00 0.00 0.00 52 1011.9
20260506175637 57 314 4.3 6.1 0.00 0.00 0.00 51 1011.9
20260506175158 57 275 1.7 4.3 0.00 0.00 0.00 51 1011.8
20260506174638 57 317 1.7 6.1 0.00 0.00 0.00 51 1011.7
20260506174138 57 105 2.6 4.3 0.00 0.00 0.00 50 1011.6
20260506173637 57 276 1.7 5.2 0.00 0.00 0.00 50 1011.5
20260506173140 57 315 2.6 4.3 0.00 0.00 0.00 50 1011.5
20260506172638 57 354 3.5 7.8 0.00 0.00 0.00 49 1011.4
20260506172138 57 288 0.9 4.3 0.00 0.00 0.00 48 1011.4
20260506171638 57 348 1.7 6.1 0.00 0.00 0.00 48 1011.4
20260506171137 57 280 2.6 4.3 0.00 0.00 0.00 48 1011.3
20260506170658 58 220 0.9 0.9 0.00 0.00 0.00 47 1011.3
20260506170137 58 0.0 1.7 0.00 0.00 0.00 48 1011.3
20260506165638 58 340 0.0 1.7 0.00 0.00 0.00 48 1011.3
20260506165217 58 152 0.9 2.6 0.00 0.00 0.00 50 1011.2
20260506164637 58 160 0.9 3.5 0.00 0.00 0.00 49 1011.2
20260506164137 59 143 1.7 3.5 0.00 0.00 0.00 50 1011.3
20260506163638 59 145 0.0 1.7 0.00 0.00 0.00 48 1011.2
20260506163138 59 0.0 2.6 0.00 0.00 0.00 47 1011.2
20260506162637 59 73 1.7 3.5 0.00 0.00 0.00 47 1011.2
20260506162137 59 257 0.9 2.6 0.00 0.00 0.00 47 1011.2
20260506161638 60 177 1.7 3.5 0.00 0.00 0.00 46 1011.2
20260506161138 60 286 0.9 1.7 0.00 0.00 0.00 46 1011.2
20260506160638 60 224 0.0 1.7 0.00 0.00 0.00 46 1011.1
20260506160138 60 247 0.9 3.5 0.00 0.00 0.00 45 1011.1
20260506155640 60 112 0.9 1.7 0.00 0.00 0.00 46 1011.1
20260506155137 60 0.0 1.7 0.00 0.00 0.00 46 1011.2
20260506154658 59 235 2.6 7.8 0.00 0.00 0.00 45 1011.1
20260506154137 60 197 2.6 4.3 0.00 0.00 0.00 44 1011.1
20260506153638 60 277 3.5 5.2 0.00 0.00 0.00 44 1011.1
20260506153138 60 287 2.6 4.3 0.00 0.00 0.00 43 1011.0
20260506152658 60 252 2.6 5.2 0.00 0.00 0.00 42 1011.1
20260506152138 60 275 3.5 6.1 0.00 0.00 0.00 42 1011.1
20260506151638 60 137 0.9 3.5 0.00 0.00 0.00 41 1011.0
20260506151137 60 293 3.5 7.0 0.00 0.00 0.00 41 1011.1
20260506150638 61 298 2.6 6.1 0.00 0.00 0.00 40 1011.0
20260506150138 60 359 2.6 8.7 0.00 0.00 0.00 40 1011.0
20260506145638 61 291 2.6 7.0 0.00 0.00 0.00 40 1011.0
20260506145137 61 260 3.5 5.2 0.00 0.00 0.00 39 1011.0
20260506144738 62 220 2.6 8.7 0.00 0.00 0.00 38 1011.0
20260506144138 62 294 1.7 6.1 0.00 0.00 0.00 40 1011.1
20260506143718 61 308 4.3 12.2 0.00 0.00 0.00 40 1011.0
20260506143157 62 242 3.5 5.2 0.00 0.00 0.00 40 1011.0
20260506142638 62 180 2.6 4.3 0.00 0.00 0.00 41 1011.0
20260506142141 61 200 3.5 5.2 0.00 0.00 0.00 41 1011.1
20260506141638 61 214 3.5 6.1 0.00 0.00 0.00 41 1011.0
20260506141138 60 163 7.0 9.6 0.00 0.00 0.00 42 1011.1
20260506140658 60 283 2.6 4.3 0.00 0.00 0.00 42 1011.0
20260506140138 61 308 2.6 4.3 0.00 0.00 0.00 42 1011.1
20260506135638 59 352 4.3 7.8 0.00 0.00 0.00 43 1010.9
20260506135138 60 40 1.7 8.7 0.00 0.00 0.00 43 1011.0
20260506134639 61 281 2.6 7.8 0.00 0.00 0.00 43 1010.9
20260506134158 61 293 1.7 3.5 0.00 0.00 0.00 41 1010.9
20260506133638 61 54 2.6 4.3 0.00 0.00 0.00 41 1010.8
20260506133138 62 157 2.6 8.7 0.00 0.00 0.00 40 1010.9
20260506132658 61 95 4.3 6.1 0.00 0.00 0.00 40 1010.9
20260506132138 61 329 2.6 7.0 0.00 0.00 0.00 42 1010.9
20260506131638 62 143 2.6 5.2 0.00 0.00 0.00 40 1010.8
20260506131138 60 312 5.2 8.7 0.00 0.00 0.00 42 1010.9
20260506130638 60 294 4.3 10.4 0.00 0.00 0.00 44 1010.8
20260506130138 61 290 3.5 7.0 0.00 0.00 0.00 44 1010.8
20260506125638 60 119 3.5 8.7 0.00 0.00 0.00 44 1010.8
20260506125159 60 309 5.2 6.1 0.00 0.00 0.00 44 1010.7
20260506124641 61 290 2.6 6.1 0.00 0.00 0.00 42 1010.7
20260506124138 61 274 1.7 5.2 0.00 0.00 0.00 45 1010.8
20260506123639 60 73 1.7 6.1 0.00 0.00 0.00 49 1010.8
20260506123138 59 291 2.6 4.3 0.00 0.00 0.00 52 1010.8
20260506122638 58 302 9.6 11.3 0.00 0.00 0.00 52 1010.7
20260506122138 60 272 4.3 7.0 0.00 0.00 0.00 48 1010.7
20260506121638 60 231 2.6 3.5 0.00 0.00 0.00 49 1010.6
20260506121138 60 348 1.7 7.8 0.00 0.00 0.00 48 1010.7
20260506120638 60 295 5.2 7.0 0.00 0.00 0.00 48 1010.7
20260506120138 59 344 5.2 6.1 0.00 0.00 0.00 46 1010.5
20260506115659 59 299 4.3 9.6 0.00 0.00 0.00 45 1010.6
20260506115138 60 257 1.7 3.5 0.00 0.00 0.00 46 1010.5
20260506114638 59 301 7.0 7.8 0.00 0.00 0.00 45 1010.5
20260506114138 59 323 7.0 12.2 0.00 0.00 0.00 46 1010.5
20260506113638 59 113 5.2 5.2 0.00 0.00 0.00 53 1010.6
20260506113138 59 295 4.3 6.1 0.00 0.00 0.00 52 1010.6
20260506112608 58 267 1.7 5.2 0.00 0.00 0.00 57 1010.5
20260506112038 57 344 4.3 7.8 0.00 0.00 0.00 61 1010.5
20260506111538 57 312 4.3 8.7 0.00 0.00 0.00 61 1010.6
20260506111038 56 313 5.2 6.1 0.00 0.00 0.00 61 1010.7
20260506110538 57 37 3.5 8.7 0.00 0.00 0.00 62 1010.7
20260506110039 57 354 5.2 8.7 0.00 0.00 0.00 61 1010.7
20260506105538 57 337 6.1 7.0 0.00 0.00 0.00 59 1010.6
20260506105038 58 290 0.0 3.5 0.00 0.00 0.00 57 1010.6
20260506104558 58 306 3.5 4.3 0.00 0.00 0.00 57 1010.6
20260506104038 58 190 1.7 7.8 0.00 0.00 0.00 56 1010.5
20260506103528 58 318 2.6 6.1 0.00 0.00 0.00 55 1010.5
20260506102908 58 206 2.6 4.3 0.00 0.00 0.00 53 1010.5
20260506102358 59 315 5.2 10.4 0.00 0.00 0.00 52 1010.6
20260506101838 59 195 2.6 7.0 0.00 0.00 0.00 51 1010.5
20260506101338 58 21 2.6 5.2 0.00 0.00 0.00 54 1010.5
20260506100838 58 16 5.2 8.7 0.00 0.00 0.00 57 1010.4
20260506100338 58 353 1.7 7.0 0.00 0.00 0.00 60 1010.5
20260506095858 59 309 5.2 8.7 0.00 0.00 0.00 57 1010.5
20260506095338 59 306 6.1 9.6 0.00 0.00 0.00 57 1010.5
20260506094858 59 304 6.1 6.1 0.00 0.00 0.00 58 1010.5
20260506094358 59 295 4.3 6.1 0.00 0.00 0.00 59 1010.4
20260506093808 58 147 2.6 7.0 0.00 0.00 0.00 60 1010.3
20260506093208 58 325 6.1 7.8 0.00 0.00 0.00 62 1010.4
20260506092638 57 300 4.3 7.0 0.00 0.00 0.00 65 1010.4
20260506092138 56 310 3.5 7.8 0.00 0.00 0.00 66 1010.4
20260506091658 57 288 5.2 7.0 0.00 0.00 0.00 65 1010.4
20260506091138 57 17 5.2 8.7 0.00 0.00 0.00 65 1010.3
20260506090638 57 319 1.7 3.5 0.00 0.00 0.00 66 1010.3
20260506090158 56 7 5.2 8.7 0.00 0.00 0.00 67 1010.3
20260506085638 57 20 3.5 7.8 0.00 0.00 0.00 67 1010.4
20260506085138 57 20 5.2 8.7 0.00 0.00 0.00 67 1010.3
20260506084658 57 291 8.7 12.2 0.00 0.00 0.00 67 1010.2
20260506084108 57 344 3.5 6.1 0.00 0.00 0.00 67 1010.1
20260506083509 56 309 10.4 10.4 0.00 0.00 0.00 68 1010.2
20260506082939 56 343 2.6 7.8 0.00 0.00 0.00 69 1010.2
20260506082438 56 312 3.5 7.0 0.00 0.00 0.00 69 1010.2
20260506081939 57 281 2.6 3.5 0.00 0.00 0.00 69 1010.2
20260506081438 55 340 3.5 7.0 0.00 0.00 0.00 72 1010.2
20260506080938 56 40 3.5 6.1 0.00 0.00 0.00 71 1010.2
20260506080458 56 317 4.3 5.2 0.00 0.00 0.00 71 1010.2
20260506073238 55 319 4.3 7.8 0.00 0.00 0.00 73 1010.1
20260506072738 55 334 5.2 7.0 0.00 0.00 0.00 72 1010.2
20260506072238 55 315 6.1 7.8 0.00 0.00 0.00 71 1010.1
20260506071738 55 65 2.6 3.5 0.00 0.00 0.00 73 1010.1
20260506071238 55 283 4.3 7.8 0.00 0.00 0.00 72 1010.1
20260506070738 55 278 2.6 7.8 0.00 0.00 0.00 74 1010.0
20260506070239 55 338 2.6 7.8 0.00 0.00 0.00 75 1010.0
20260506062138 53 294 2.6 4.3 0.00 0.00 0.00 80 1009.9
20260506061638 53 317 1.7 4.3 0.00 0.00 0.00 81 1009.8
20260506061138 53 320 2.6 4.3 0.00 0.00 0.00 81 1009.7
20260506060638 52 340 3.5 5.2 0.00 0.00 0.00 81 1009.7
20260506060138 52 310 1.7 6.1 0.00 0.00 0.00 82 1009.8
20260506051039 51 338 2.6 4.3 0.00 0.00 0.00 84 1009.8
20260506050539 51 331 3.5 7.0 0.00 0.00 0.00 84 1009.9
20260506045038 50 310 1.7 6.1 0.00 0.00 0.00 84 1009.9
20260506044559 50 294 4.3 6.1 0.00 0.00 0.00 84 1009.8
20260506044039 50 2 1.7 6.1 0.00 0.00 0.00 84 1009.9
20260506043539 50 321 3.5 4.3 0.00 0.00 0.00 85 1009.9
20260506043038 50 347 1.7 4.3 0.00 0.00 0.00 84 1009.8
20260506042539 50 337 3.5 6.1 0.00 0.00 0.00 84 1009.8
20260506042039 50 306 3.5 5.2 0.00 0.00 0.00 85 1009.9
20260506041538 50 341 3.5 4.3 0.00 0.00 0.00 84 1009.9
20260506041039 50 355 2.6 6.1 0.00 0.00 0.00 83 1009.9
20260506040539 50 347 3.5 4.3 0.00 0.00 0.00 82 1009.9
20260506040039 50 5 2.6 7.0 0.00 0.00 0.00 81 1009.9
20260506035600 50 316 2.6 4.3 0.00 0.00 0.00 81 1010.0
20260506035038 50 352 5.2 6.1 0.00 0.00 0.00 80 1009.9
20260506034539 50 25 2.6 6.1 0.00 0.00 0.00 80 1009.9
20260506034039 50 26 6.1 8.7 0.00 0.00 0.00 80 1010.0
20260506033539 50 316 3.5 5.2 0.00 0.00 0.00 81 1010.0
20260506033039 50 294 3.5 4.3 0.00 0.00 0.00 81 1010.0
20260506032538 50 341 2.6 3.5 0.00 0.00 0.00 82 1010.0
20260506032039 50 358 2.6 3.5 0.00 0.00 0.00 82 1010.0
20260506031539 50 319 1.7 4.3 0.00 0.00 0.00 82 1010.1
20260506031039 50 59 2.6 5.2 0.00 0.00 0.00 82 1010.1
20260506030538 50 346 2.6 4.3 0.00 0.00 0.00 82 1010.2
20260506030039 49 12 2.6 3.5 0.00 0.00 0.00 83 1010.2
20260506025539 49 339 1.7 4.3 0.00 0.00 0.00 83 1010.1
20260506025039 49 333 3.5 7.0 0.00 0.00 0.00 83 1010.3
20260506024538 49 315 1.7 2.6 0.00 0.00 0.00 83 1010.3
20260506024058 49 316 0.9 5.2 0.00 0.00 0.00 83 1010.3
20260506023539 49 323 1.7 2.6 0.00 0.00 0.00 83 1010.3
20260506023039 49 343 0.9 5.2 0.00 0.00 0.00 83 1010.3
20260506022539 49 313 0.9 2.6 0.00 0.00 0.00 83 1010.3
20260506022040 49 290 5.2 6.1 0.00 0.00 0.00 83 1010.4
20260506021539 49 318 3.5 4.3 0.00 0.00 0.00 83 1010.3
20260506021039 49 17 4.3 7.8 0.00 0.00 0.00 83 1010.4
20260506020539 49 31 2.6 3.5 0.00 0.00 0.00 83 1010.4
20260506020039 49 7 2.6 6.1 0.00 0.00 0.00 83 1010.4
20260506015539 49 321 1.7 6.1 0.00 0.00 0.00 83 1010.4
20260506015039 49 344 4.3 6.1 0.00 0.00 0.00 83 1010.5
20260506014539 49 304 2.6 7.8 0.00 0.00 0.00 83 1010.5
20260506014039 49 321 1.7 4.3 0.00 0.00 0.00 83 1010.4
20260506013539 49 327 2.6 6.1 0.00 0.00 0.00 83 1010.4
20260506013039 49 314 2.6 6.1 0.00 0.00 0.00 83 1010.4
20260506012539 49 310 1.7 4.3 0.00 0.00 0.00 83 1010.4
20260506012039 49 306 2.6 6.1 0.00 0.00 0.00 83 1010.5
20260506011539 49 332 7.0 8.7 0.00 0.00 0.00 83 1010.5
20260506011039 49 311 2.6 5.2 0.00 0.00 0.00 83 1010.5
20260506010539 49 292 4.3 6.1 0.00 0.00 0.00 83 1010.5
20260506010059 49 336 5.2 7.0 0.00 0.00 0.00 82 1010.6
20260506005559 49 318 5.2 6.1 0.00 0.00 0.00 82 1010.7
20260506005039 49 333 4.3 7.8 0.00 0.00 0.00 82 1010.7
20260506004621 49 339 2.6 7.8 0.00 0.00 0.00 82 1010.8
20260506004039 49 321 4.3 7.8 0.00 0.00 0.00 82 1010.8
20260506003539 49 330 2.6 6.1 0.00 0.00 0.00 82 1010.8
20260506003039 49 296 4.3 5.2 0.00 0.00 0.00 81 1010.8
20260506002539 49 321 4.3 5.2 0.00 0.00 0.00 81 1010.9
20260506002039 49 334 3.5 4.3 0.00 0.00 0.00 81 1011.0
20260506001539 49 36 3.5 6.1 0.00 0.00 0.00 80 1011.0
20260506001039 49 354 3.5 3.5 0.00 0.00 0.00 80 1011.0
20260506000559 49 310 3.5 3.5 0.00 0.00 0.00 80 1011.0
20260506000039 49 326 2.6 5.2 0.00 0.00 0.00 80 1011.1
20260505235539 49 356 1.7 4.3 0.00 0.00 0.00 80 1011.1
20260505235059 49 271 1.7 4.3 0.00 0.00 0.00 80 1011.1
20260505234539 49 25 4.3 5.2 0.00 0.00 0.00 80 1011.1
20260505234039 49 330 2.6 5.2 0.00 0.00 0.00 80 1011.1
20260505233539 48 21 0.9 3.5 0.00 0.00 0.00 79 1011.2
20260505233059 49 21 3.5 7.0 0.00 0.00 0.00 79 1011.2
20260505232539 49 313 2.6 3.5 0.00 0.00 0.00 78 1011.3
20260505232059 49 336 3.5 3.5 0.00 0.00 0.00 78 1011.3
20260505231539 49 283 3.5 4.3 0.00 0.00 0.00 78 1011.3
20260505231040 49 47 4.3 5.2 0.00 0.00 0.00 78 1011.4
20260505230559 49 310 1.7 2.6 0.00 0.00 0.00 78 1011.4
20260505230039 49 3 3.5 4.3 0.00 0.00 0.00 77 1011.4
20260505225539 49 36 2.6 4.3 0.00 0.00 0.00 77 1011.4
20260505225059 49 298 3.5 5.2 0.00 0.00 0.00 77 1011.5
20260505224539 49 301 3.5 4.3 0.00 0.00 0.00 77 1011.5
20260505224039 49 312 2.6 6.1 0.00 0.00 0.00 77 1011.4
20260505223539 49 6 2.6 7.8 0.00 0.00 0.00 77 1011.4
20260505223039 49 329 3.5 6.1 0.00 0.00 0.00 78 1011.4
20260505222539 49 31 1.7 6.1 0.00 0.00 0.00 78 1011.5
20260505222039 49 296 3.5 5.2 0.00 0.00 0.00 78 1011.5
20260505221539 49 319 2.6 3.5 0.00 0.00 0.00 78 1011.5
20260505221039 49 338 4.3 6.1 0.00 0.00 0.00 78 1011.6
20260505220539 49 354 2.6 4.3 0.00 0.00 0.00 77 1011.6
20260505220039 49 325 3.5 6.1 0.00 0.00 0.00 77 1011.7
20260505215539 50 348 4.3 6.1 0.00 0.00 0.00 77 1011.7
20260505215039 50 292 2.6 3.5 0.00 0.00 0.00 77 1011.7
20260505214539 50 326 1.7 6.1 0.00 0.00 0.00 76 1011.8
20260505214039 50 345 3.5 5.2 0.00 0.00 0.00 76 1011.8
20260505213541 50 337 2.6 4.3 0.00 0.00 0.00 76 1011.8
20260505213039 50 306 3.5 4.3 0.00 0.00 0.00 76 1011.8
20260505212539 50 314 2.6 4.3 0.00 0.00 0.00 75 1011.8
20260505212039 50 310 3.5 4.3 0.00 0.00 0.00 76 1011.9
20260505211539 50 291 3.5 4.3 0.00 0.00 0.00 75 1011.9
20260505211039 50 298 3.5 5.2 0.00 0.00 0.00 75 1011.8
20260505210540 51 337 5.2 7.0 0.00 0.00 0.00 75 1011.9
20260505210039 51 284 5.2 8.7 0.00 0.00 0.00 75 1011.9
20260505205539 51 310 5.2 7.0 0.00 0.00 0.00 75 1011.9
20260505205039 51 325 2.6 6.1 0.00 0.00 0.00 75 1012.0
20260505204539 51 305 4.3 6.1 0.00 0.00 0.00 74 1011.9
20260505204039 51 337 3.5 5.2 0.00 0.00 0.00 74 1012.0